[[{"header":{"parameterUnit":"m.s-1","parameterCategory":1,"la1":30.2991,"la2":30.254,"lo1":-89.0895,"lo2":-89.0444,"dy":0.0017,"dx":0.0017,"nx":28,"ny":28,"refTime":"2024-03-22T03:00:00:Z","depth":0,"parameterNumber":2,"parameterNumberName":"U-component_of_WINDS"},"data":[0,0,0,0,0,0,0,0,0,0,0,0,0,0,0,0,0,0,0,0,0,0,0,0,0,0,0,0,0,0,0,0,0,0,0,0,0,0,0,0,0,0,0,0,0,0,0,0,0,0,0,0,0,0,0,0,0,0,1.8358,1.8357,0,1.8321,1.832,1.832,1.8255,1.8254,1.8253,1.8252,1.8217,1.8217,1.8217,0,0,0,0,0,0,0,0,0,0,0,0,0,1.8376,1.8376,1.8358,1.8357,1.8357,1.8321,1.832,1.832,1.8256,1.8254,1.8253,1.8251,1.8216,1.8217,1.8217,0,0,0,0,0,0,0,0,0,0,0,0,0,1.8357,1.8376,1.8358,1.832,1.8317,1.8321,1.832,1.832,1.8256,1.8254,1.8252,1.825,1.8216,1.8217,1.8217,1.8256,0,0,1.8218,1.8218,0,0,0,0,0,0,0,0,1.8358,1.8356,1.8326,1.8323,1.8319,1.8291,1.8314,1.8298,1.8256,1.8279,1.8252,1.825,1.8243,1.8241,1.8238,1.8254,1.8253,1.8218,1.8218,1.8218,1.8218,0,0,0,0,0,0,0,1.8359,1.8357,1.8343,1.8326,1.8321,1.8307,1.8302,1.8311,1.8272,1.8277,1.8272,1.8268,1.824,1.8238,1.8237,1.8252,1.8218,1.8218,1.8218,1.8219,1.83,1.8302,0,0,0,0,0,0,1.8366,1.8359,1.8344,1.8342,1.8334,1.8308,1.8302,1.8302,1.8272,1.8265,1.827,1.8266,1.8238,1.8237,1.8235,1.8279,1.8218,1.8219,1.8219,1.8298,1.83,1.8302,0,0,0,0,0,0,1.8366,1.8365,1.8346,1.8349,1.8346,1.8309,1.8309,1.8302,1.8299,1.8266,1.8259,1.8274,1.8237,1.8235,1.8251,1.8277,1.8219,1.8219,1.8295,1.8298,1.8301,1.8368,0,0,0,0,0,0,1.8367,1.8366,1.8379,1.835,1.8346,1.8362,1.8311,1.8302,1.83,1.8293,1.8269,1.8263,1.8235,1.8251,1.8252,1.8277,1.8219,1.8293,1.8297,1.83,1.8363,1.8372,1.8381,0,0,0,0,0,1.8368,1.84,1.838,1.8379,1.8361,1.8363,1.8361,1.8328,1.8302,1.8316,1.8295,1.8263,1.8275,1.8253,1.8253,1.8279,1.8291,1.8296,1.83,1.8359,1.8371,1.838,0,0,0,0,0,0,1.8433,1.8395,1.8373,1.8396,1.8383,1.8352,1.8368,1.8341,1.8336,1.833,1.8291,1.8286,1.8308,1.8295,1.8272,1.8316,1.8278,1.8283,1.8323,1.8334,1.8342,1.8345,1.8219,0,0,0,0,0,1.845,1.8454,1.842,1.8444,1.8438,1.8405,1.8404,1.838,1.8366,1.836,1.8341,1.8329,1.833,1.8331,1.833,1.8361,1.8355,1.8379,1.8388,1.8395,1.84,1.8416,1.8427,1.8317,1.8317,1.8317,0,0,1.8485,1.8465,1.8469,1.8456,1.8444,1.8449,1.8401,1.8408,1.8413,1.8362,1.8376,1.8361,1.8346,1.837,1.838,1.836,1.8429,1.8401,1.8407,1.8407,1.8422,1.8432,1.8442,1.832,1.8319,1.8319,0,0,1.8552,1.8536,1.8554,1.8543,1.8525,1.8502,1.8507,1.848,1.8469,1.8482,1.8444,1.845,1.8451,1.8442,1.8438,1.8503,1.8474,1.8504,1.855,1.8567,1.8576,1.8583,1.8607,1.8616,1.8509,1.8509,1.8509,0,1.8598,1.8604,1.8568,1.8578,1.8574,1.8528,1.8547,1.8538,1.852,1.8519,1.8497,1.85,1.8486,1.8508,1.8524,1.8522,1.8527,1.8506,1.8577,1.8584,1.8591,1.8613,1.8622,1.8513,1.8512,1.8512,1.8511,0,1.8662,1.8667,1.8684,1.8668,1.8666,1.8681,1.8648,1.8651,1.8627,1.8608,1.8623,1.8605,1.86,1.8604,1.8581,1.8623,1.8612,1.8584,1.8546,1.8606,1.8626,1.8634,1.8518,1.8517,1.8515,1.8515,0,0,1.8768,1.8732,1.8739,1.8732,1.8709,1.8712,1.8726,1.872,1.8724,1.8714,1.8725,1.8729,1.8703,1.8699,1.8675,1.869,1.8744,1.866,1.8659,1.8677,1.879,1.8811,1.8822,1.8725,1.8726,1.8727,1.8792,0,1.883,1.885,1.8818,1.8846,1.8851,1.8808,1.882,1.8808,1.8791,1.8793,1.8774,1.8778,1.8744,1.8741,1.8754,1.8734,1.8766,1.8729,1.8736,1.8736,1.8741,1.8832,1.8854,1.8915,1.8799,1.8801,1.8802,0,1.8905,1.8898,1.8926,1.8902,1.8903,1.8915,1.8908,1.891,1.8897,1.8883,1.8879,1.885,1.8863,1.8826,1.8844,1.882,1.8821,1.8813,1.8814,1.8813,1.8773,1.8834,1.8934,1.8944,1.8814,1.8813,1.8812,0,1.898,1.8978,1.8995,1.899,1.8963,1.8972,1.8961,1.8945,1.8944,1.8939,1.8938,1.8935,1.8933,1.8932,1.8904,1.8879,1.8926,1.8886,1.8916,1.8917,1.8927,1.8927,1.9029,1.8928,1.8928,1.8928,1.8928,0,1.9053,1.9072,1.9028,1.9039,1.9059,1.9024,1.9046,1.9031,1.9017,1.9025,1.8988,1.8997,1.8959,1.8964,1.8942,1.8961,1.8961,1.8951,1.8945,1.8954,1.8956,1.8954,1.8949,1.893,1.893,1.8929,1.8929,0,1.914,1.9112,1.9127,1.91,1.9094,1.911,1.9088,1.9097,1.9078,1.9088,1.9089,1.9059,1.9062,1.9035,1.9033,1.9019,1.9048,1.9035,1.9053,1.9049,1.908,1.9078,1.9185,1.9197,1.9088,1.909,1.909,0,1.9188,1.9202,1.9177,1.9179,1.917,1.9174,1.9173,1.9139,1.914,1.9126,1.9137,1.9138,1.9136,1.9145,1.9124,1.9123,1.9109,1.9147,1.9109,1.9118,1.911,1.911,1.9112,1.9155,1.9156,1.9157,1.9158,0,1.9278,1.9263,1.9262,1.9258,1.9257,1.9252,1.9244,1.9249,1.9212,1.9215,1.9218,1.9217,1.9216,1.9218,1.9213,1.9203,1.9175,1.9171,1.9177,1.9187,1.9197,1.9193,1.9075,1.9168,1.9167,1.9166,1.9166,1.9165,1.9347,1.9358,1.9342,1.9343,1.9333,1.9327,1.9335,1.9317,1.9318,1.9314,1.9294,1.9301,1.9289,1.9279,1.9272,1.9278,1.926,1.927,1.9273,1.9276,1.9281,1.9196,1.9277,1.9277,1.9277,1.9276,1.9276,0,1.9435,1.9423,1.9424,1.9414,1.9416,1.9389,1.9379,1.9382,1.9389,1.9379,1.9378,1.9383,1.9384,1.9364,1.9363,1.9372,1.9359,1.9373,1.9372,1.937,1.9297,1.9291,1.9383,1.9383,1.9383,1.9383,1.9383,1.9383,1.9481,1.9497,1.9481,1.9494,1.9481,1.9487,1.9484,1.9479,1.9471,1.9477,1.9478,1.9464,1.9451,1.9449,1.945,1.9444,1.9445,1.9464,1.9454,1.9386,1.9375,1.9365,1.936,1.9464,1.9464,1.9526,1.9527,1.9527]},{"header":{"parameterUnit":"m.s-1","parameterCategory":1,"la1":30.2991,"la2":30.254,"lo1":-89.0895,"lo2":-89.0444,"dy":0.0017,"dx":0.0017,"nx":28,"ny":28,"refTime":"2024-03-22T03:00:00:Z","depth":0,"parameterNumber":3,"parameterNumberName":"V-component_of_WINDS"},"data":[0,0,0,0,0,0,0,0,0,0,0,0,0,0,0,0,0,0,0,0,0,0,0,0,0,0,0,0,0,0,0,0,0,0,0,0,0,0,0,0,0,0,0,0,0,0,0,0,0,0,0,0,0,0,0,0,0,0,-1.6108,-1.6109,0,-1.6238,-1.624,-1.6241,-1.6276,-1.6275,-1.6275,-1.6274,-1.6413,-1.6417,-1.6422,0,0,0,0,0,0,0,0,0,0,0,0,0,-1.5896,-1.59,-1.6108,-1.6109,-1.6111,-1.6238,-1.624,-1.6241,-1.6276,-1.6275,-1.6275,-1.6274,-1.6411,-1.6417,-1.6422,0,0,0,0,0,0,0,0,0,0,0,0,0,-1.6004,-1.5901,-1.6107,-1.6144,-1.6148,-1.6237,-1.624,-1.6242,-1.6277,-1.6275,-1.6274,-1.6273,-1.641,-1.6416,-1.6423,-1.6487,0,0,-1.6443,-1.6446,0,0,0,0,0,0,0,0,-1.5997,-1.6011,-1.6137,-1.6141,-1.6146,-1.624,-1.6216,-1.6324,-1.6277,-1.6228,-1.6274,-1.6273,-1.6357,-1.6368,-1.6395,-1.6494,-1.65,-1.6444,-1.6448,-1.6451,-1.6452,0,0,0,0,0,0,0,-1.599,-1.6006,-1.6159,-1.6138,-1.6144,-1.6156,-1.617,-1.6237,-1.6298,-1.6232,-1.6235,-1.625,-1.6359,-1.6388,-1.6398,-1.6502,-1.6443,-1.6449,-1.6453,-1.6456,-1.6663,-1.6664,0,0,0,0,0,0,-1.5975,-1.5999,-1.6155,-1.6163,-1.6067,-1.616,-1.6176,-1.6211,-1.6297,-1.6309,-1.625,-1.6251,-1.6377,-1.639,-1.6403,-1.6486,-1.645,-1.6457,-1.6461,-1.6661,-1.6663,-1.6665,0,0,0,0,0,0,-1.5971,-1.5989,-1.615,-1.6082,-1.6104,-1.6165,-1.6204,-1.6214,-1.6243,-1.6311,-1.6322,-1.6269,-1.6377,-1.6394,-1.6466,-1.6491,-1.646,-1.6466,-1.666,-1.6662,-1.6664,-1.665,0,0,0,0,0,0,-1.5964,-1.5987,-1.601,-1.6082,-1.6107,-1.6209,-1.6206,-1.6218,-1.6254,-1.6256,-1.6331,-1.6342,-1.6377,-1.6456,-1.6473,-1.65,-1.6471,-1.6658,-1.6661,-1.6663,-1.6649,-1.6651,-1.6654,0,0,0,0,0,-1.5957,-1.6002,-1.6011,-1.603,-1.6137,-1.621,-1.6224,-1.6262,-1.6256,-1.6281,-1.6325,-1.634,-1.6485,-1.6463,-1.6482,-1.6511,-1.6656,-1.666,-1.6663,-1.6647,-1.6651,-1.6654,0,0,0,0,0,0,-1.5933,-1.6012,-1.6023,-1.6092,-1.6144,-1.6216,-1.6248,-1.6265,-1.6321,-1.632,-1.6367,-1.6384,-1.6453,-1.649,-1.6463,-1.658,-1.6571,-1.6579,-1.6553,-1.6557,-1.656,-1.6549,-1.6476,0,0,0,0,0,-1.5935,-1.5985,-1.6053,-1.6108,-1.6133,-1.6186,-1.6219,-1.6244,-1.63,-1.6323,-1.6372,-1.6427,-1.6486,-1.6523,-1.6581,-1.6654,-1.6672,-1.6684,-1.6687,-1.6689,-1.6695,-1.6738,-1.6744,-1.6676,-1.6676,-1.6676,0,0,-1.5941,-1.5991,-1.602,-1.6104,-1.6147,-1.6201,-1.6204,-1.626,-1.6301,-1.6332,-1.6403,-1.6441,-1.6506,-1.658,-1.6615,-1.6612,-1.6718,-1.6693,-1.6694,-1.6699,-1.6742,-1.6749,-1.6754,-1.6678,-1.6678,-1.6678,0,0,-1.598,-1.6021,-1.6072,-1.6115,-1.618,-1.6215,-1.6227,-1.6297,-1.6323,-1.6395,-1.6419,-1.647,-1.6569,-1.6615,-1.6652,-1.671,-1.6726,-1.6727,-1.6742,-1.6783,-1.6789,-1.6794,-1.6816,-1.6823,-1.6733,-1.6733,-1.6733,0,-1.598,-1.6059,-1.6097,-1.6152,-1.6189,-1.6219,-1.6272,-1.6313,-1.6393,-1.6419,-1.6415,-1.6542,-1.6588,-1.6673,-1.6687,-1.6715,-1.6733,-1.6719,-1.6785,-1.679,-1.6795,-1.6817,-1.6825,-1.6733,-1.6733,-1.6733,-1.6733,0,-1.6057,-1.6111,-1.6145,-1.6221,-1.6262,-1.6316,-1.6365,-1.6403,-1.6425,-1.6461,-1.6535,-1.6592,-1.6662,-1.6684,-1.6706,-1.6774,-1.677,-1.6775,-1.6768,-1.6801,-1.6822,-1.683,-1.6732,-1.6732,-1.6732,-1.6733,0,0,-1.6082,-1.6179,-1.6191,-1.6226,-1.63,-1.6345,-1.6401,-1.6468,-1.6501,-1.6556,-1.6606,-1.669,-1.6695,-1.6737,-1.6765,-1.6802,-1.6846,-1.6802,-1.6805,-1.6809,-1.6925,-1.6921,-1.693,-1.6857,-1.6859,-1.686,-1.692,0,-1.6131,-1.623,-1.6267,-1.635,-1.6402,-1.6432,-1.6482,-1.6534,-1.657,-1.6622,-1.6663,-1.6722,-1.6724,-1.6749,-1.6787,-1.6832,-1.687,-1.6828,-1.6906,-1.6908,-1.6889,-1.6941,-1.6937,-1.699,-1.6928,-1.693,-1.6931,0,-1.62,-1.6254,-1.6342,-1.6411,-1.6434,-1.6478,-1.6543,-1.6592,-1.6653,-1.6677,-1.6723,-1.675,-1.6813,-1.6802,-1.689,-1.6862,-1.6896,-1.6923,-1.6927,-1.6936,-1.6922,-1.6952,-1.7008,-1.7016,-1.6944,-1.6943,-1.6942,0,-1.6211,-1.6307,-1.6372,-1.6401,-1.6483,-1.6513,-1.6549,-1.6609,-1.6647,-1.6706,-1.6732,-1.6797,-1.6833,-1.6884,-1.6928,-1.6916,-1.7014,-1.7006,-1.7037,-1.7036,-1.7056,-1.7055,-1.7119,-1.7078,-1.7077,-1.7077,-1.7077,0,-1.6261,-1.6314,-1.6378,-1.6418,-1.6479,-1.6522,-1.6582,-1.662,-1.6673,-1.6723,-1.6754,-1.68,-1.6855,-1.691,-1.6945,-1.7015,-1.7031,-1.7053,-1.7062,-1.7051,-1.7048,-1.7074,-1.7072,-1.7079,-1.7079,-1.7079,-1.7078,0,-1.6284,-1.6328,-1.6401,-1.6473,-1.6492,-1.6534,-1.6597,-1.6638,-1.6676,-1.6739,-1.6757,-1.6817,-1.6883,-1.6932,-1.7018,-1.7042,-1.7116,-1.7125,-1.7095,-1.7099,-1.7128,-1.7125,-1.7212,-1.7227,-1.7175,-1.7175,-1.7175,0,-1.6313,-1.6354,-1.643,-1.6464,-1.65,-1.6555,-1.6595,-1.664,-1.668,-1.6754,-1.6787,-1.6855,-1.6911,-1.7016,-1.7069,-1.7136,-1.7147,-1.7173,-1.7157,-1.7145,-1.7149,-1.7146,-1.7151,-1.7175,-1.7175,-1.7176,-1.7176,0,-1.636,-1.638,-1.6435,-1.6498,-1.6543,-1.6596,-1.6649,-1.6676,-1.6731,-1.6776,-1.6843,-1.6886,-1.6974,-1.7042,-1.7114,-1.7154,-1.7175,-1.718,-1.7191,-1.718,-1.7162,-1.7173,-1.7101,-1.7178,-1.7178,-1.7178,-1.7178,-1.7178,-1.6388,-1.6426,-1.6485,-1.6546,-1.659,-1.6639,-1.6682,-1.6725,-1.6781,-1.6855,-1.6879,-1.6949,-1.7012,-1.711,-1.7151,-1.7208,-1.7208,-1.7223,-1.7227,-1.7231,-1.723,-1.7152,-1.7221,-1.7221,-1.7221,-1.7221,-1.7221,0,-1.6437,-1.6477,-1.6532,-1.6605,-1.6653,-1.6667,-1.6727,-1.6767,-1.6827,-1.6883,-1.6938,-1.7016,-1.7083,-1.7141,-1.7211,-1.7245,-1.7257,-1.7262,-1.726,-1.727,-1.7226,-1.721,-1.7251,-1.7251,-1.7251,-1.7251,-1.7251,-1.7251,-1.6469,-1.6535,-1.6563,-1.6652,-1.6693,-1.676,-1.6793,-1.684,-1.6884,-1.697,-1.7024,-1.7061,-1.7119,-1.7194,-1.7256,-1.7272,-1.7297,-1.7299,-1.7318,-1.7276,-1.7272,-1.7269,-1.7254,-1.7304,-1.7304,-1.7357,-1.7357,-1.7358]}]]